TimeEST,TemperatureF,Dew PointF,Humidity,Sea Level PressureIn,VisibilityMPH,Wind Direction,Wind SpeedMPH,Gust SpeedMPH,PrecipitationIn,Events,Conditions,WindDirDegrees,DateUTC
12:58 AM,35.4,34.3,96,29.87,7.0,SE,18.4,-,0.04,,Overcast,130,2014-02-21 05:58:00
1:13 AM,35.6,33.8,93,29.86,8.0,SE,18.4,25.3,N/A,,Overcast,140,2014-02-21 06:13:00
1:43 AM,35.6,33.8,93,29.83,8.0,SE,18.4,24.2,N/A,Rain,Light Rain,140,2014-02-21 06:43:00
1:58 AM,35.4,34.7,97,29.85,10.0,SE,16.1,25.3,0.08,Rain,Light Rain,140,2014-02-21 06:58:00
2:43 AM,35.6,35.6,100,29.79,9.0,SE,20.7,25.3,N/A,Rain,Light Rain,140,2014-02-21 07:43:00
2:58 AM,35.4,34.9,98,29.80,7.0,SE,19.6,26.5,0.08,,Overcast,140,2014-02-21 07:58:00
3:58 AM,36.0,35.6,99,29.77,7.0,SE,21.9,28.8,0.10,,Overcast,140,2014-02-21 08:58:00
4:08 AM,35.6,35.6,100,29.74,10.0,SE,19.6,29.9,N/A,,Overcast,140,2014-02-21 09:08:00
4:10 AM,35.6,35.6,100,29.74,10.0,SE,20.7,29.9,N/A,,Overcast,140,2014-02-21 09:10:00
4:14 AM,35.6,35.6,100,29.74,10.0,SE,20.7,27.6,N/A,,Overcast,140,2014-02-21 09:14:00
4:58 AM,36.9,36.3,98,29.76,10.0,SSE,20.7,28.8,0.07,,Overcast,160,2014-02-21 09:58:00
5:12 AM,37.4,37.4,100,29.73,10.0,SSE,21.9,29.9,N/A,,Overcast,150,2014-02-21 10:12:00
5:21 AM,39.2,37.4,93,29.71,10.0,SSE,24.2,35.7,N/A,Rain,Light Rain,150,2014-02-21 10:21:00
5:57 AM,39.2,35.6,87,29.70,10.0,SSE,26.5,32.2,N/A,,Overcast,160,2014-02-21 10:57:00
5:58 AM,39.2,35.6,87,29.72,10.0,SSE,24.2,32.2,0.01,,Overcast,150,2014-02-21 10:58:00
6:58 AM,38.3,35.8,91,29.67,10.0,SSE,23.0,34.5,0.00,,Overcast,150,2014-02-21 11:58:00
7:06 AM,39.2,35.6,87,29.66,10.0,SSE,23.0,31.1,N/A,,Overcast,150,2014-02-21 12:06:00
7:38 AM,39.2,37.4,93,29.63,10.0,SSE,23.0,32.2,N/A,,Overcast,150,2014-02-21 12:38:00
7:58 AM,39.2,36.3,89,29.64,10.0,SSE,27.6,39.1,0.02,,Overcast,150,2014-02-21 12:58:00
8:13 AM,39.2,37.4,93,29.62,9.0,SSE,24.2,31.1,N/A,,Overcast,150,2014-02-21 13:13:00
8:58 AM,39.6,37.8,93,29.63,10.0,SSE,25.3,36.8,0.04,Rain,Light Rain,150,2014-02-21 13:58:00
9:58 AM,39.2,38.5,97,29.58,10.0,SSE,21.9,33.4,0.09,Rain,Light Rain,150,2014-02-21 14:58:00
10:58 AM,39.9,39.4,98,29.57,8.0,SSE,23.0,28.8,0.04,,Overcast,150,2014-02-21 15:58:00
11:28 AM,39.2,39.2,100,29.58,6.0,SSE,15.0,-,N/A,,Overcast,160,2014-02-21 16:28:00
11:33 AM,39.2,39.2,100,29.59,7.0,SSE,16.1,-,N/A,,Overcast,160,2014-02-21 16:33:00
11:38 AM,39.2,39.2,100,29.59,7.0,SSE,13.8,-,N/A,,Overcast,150,2014-02-21 16:38:00
11:43 AM,39.2,39.2,100,29.58,6.0,SSE,11.5,-,N/A,,Overcast,150,2014-02-21 16:43:00
11:58 AM,39.4,39.2,99,29.59,8.0,SSE,8.1,-,0.17,Rain,Light Rain,160,2014-02-21 16:58:00
12:33 PM,39.2,39.2,100,29.62,4.0,WSW,18.4,33.4,N/A,Rain,Rain,250,2014-02-21 17:33:00
12:38 PM,37.4,37.4,100,29.62,6.0,WSW,17.3,29.9,N/A,Rain,Rain,250,2014-02-21 17:38:00
12:58 PM,35.8,35.6,99,29.66,10.0,WSW,13.8,26.5,0.11,Rain,Light Rain,250,2014-02-21 17:58:00
1:18 PM,35.6,33.8,93,29.66,7.0,WSW,15.0,28.8,N/A,Snow,Light Snow,250,2014-02-21 18:18:00
1:23 PM,33.8,33.8,100,29.66,5.0,WSW,16.1,28.8,N/A,Snow,Light Snow,250,2014-02-21 18:23:00
1:48 PM,33.8,33.8,100,29.66,7.0,WSW,11.5,20.7,N/A,Snow,Light Snow,250,2014-02-21 18:48:00
1:58 PM,34.0,33.8,99,29.68,10.0,WSW,12.7,20.7,0.05,,Overcast,250,2014-02-21 18:58:00
2:28 PM,32.0,32.0,100,29.66,4.0,WSW,10.4,18.4,N/A,Snow,Light Snow,240,2014-02-21 19:28:00
2:43 PM,32.0,32.0,100,29.66,4.0,SW,11.5,18.4,N/A,Snow,Light Snow,230,2014-02-21 19:43:00
2:48 PM,32.0,32.0,100,29.65,5.0,SW,11.5,18.4,N/A,Snow,Light Snow,230,2014-02-21 19:48:00
2:58 PM,33.6,33.4,99,29.68,8.0,WSW,8.1,-,0.03,Snow,Light Snow,240,2014-02-21 19:58:00
3:22 PM,33.8,32.0,93,29.65,10.0,SSW,8.1,-,N/A,,Scattered Clouds,200,2014-02-21 20:22:00
3:24 PM,33.8,32.0,93,29.66,10.0,SSW,9.2,-,N/A,Rain,Light Rain,210,2014-02-21 20:24:00
3:41 PM,33.8,33.8,100,29.67,10.0,South,10.4,-,N/A,,Clear,190,2014-02-21 20:41:00
3:58 PM,34.9,34.5,99,29.69,10.0,South,11.5,-,0.00,,Clear,180,2014-02-21 20:58:00
4:58 PM,36.3,31.6,83,29.69,10.0,South,9.2,-,N/A,,Scattered Clouds,180,2014-02-21 21:58:00
5:50 PM,35.6,32.0,87,29.66,10.0,SSE,9.2,-,N/A,,Mostly Cloudy,150,2014-02-21 22:50:00
5:57 PM,35.6,32.0,87,29.67,10.0,SSE,10.4,-,N/A,,Mostly Cloudy,150,2014-02-21 22:57:00
5:58 PM,35.6,32.0,87,29.69,10.0,SSE,10.4,-,0.00,,Mostly Cloudy,160,2014-02-21 22:58:00
6:05 PM,35.6,32.0,87,29.66,10.0,SSE,9.2,-,N/A,,Mostly Cloudy,150,2014-02-21 23:05:00
6:18 PM,35.6,32.0,87,29.66,10.0,SSE,9.2,-,N/A,,Scattered Clouds,150,2014-02-21 23:18:00
6:53 PM,33.8,32.0,93,29.67,10.0,SSE,4.6,-,N/A,,Light Drizzle,150,2014-02-21 23:53:00
6:58 PM,34.5,33.3,95,29.69,10.0,SSE,3.5,-,0.00,,Light Drizzle,160,2014-02-21 23:58:00
7:03 PM,33.8,32.0,93,29.67,10.0,SSE,5.8,-,N/A,,Light Drizzle,150,2014-02-22 00:03:00
7:05 PM,33.8,32.0,93,29.68,10.0,South,8.1,-,N/A,,Mostly Cloudy,170,2014-02-22 00:05:00
7:07 PM,33.8,32.0,93,29.68,10.0,South,8.1,-,N/A,,Light Drizzle,170,2014-02-22 00:07:00
7:29 PM,35.6,32.0,87,29.68,10.0,SW,9.2,-,N/A,,Partly Cloudy,220,2014-02-22 00:29:00
7:31 PM,35.6,32.0,87,29.68,10.0,SSW,10.4,-,N/A,,Light Drizzle,210,2014-02-22 00:31:00
7:56 PM,37.4,32.0,81,29.69,10.0,WSW,9.2,-,N/A,Rain,Light Rain,250,2014-02-22 00:56:00
7:58 PM,36.5,33.6,89,29.71,10.0,WSW,9.2,-,0.00,Rain,Light Rain,250,2014-02-22 00:58:00
8:18 PM,35.6,32.0,87,29.69,10.0,SW,13.8,18.4,N/A,Rain,Light Rain,220,2014-02-22 01:18:00
8:27 PM,35.6,32.0,87,29.69,10.0,SW,12.7,20.7,N/A,,Mostly Cloudy,220,2014-02-22 01:27:00
8:50 PM,35.6,32.0,87,29.70,10.0,SW,16.1,21.9,N/A,Rain,Light Rain,220,2014-02-22 01:50:00
8:58 PM,36.5,31.6,83,29.72,10.0,SW,15.0,21.9,0.01,Rain,Light Rain,220,2014-02-22 01:58:00
9:01 PM,35.6,32.0,87,29.70,10.0,SW,15.0,23.0,N/A,,Scattered Clouds,220,2014-02-22 02:01:00
9:58 PM,36.1,29.8,78,29.72,10.0,SW,11.5,-,0.00,,Overcast,220,2014-02-22 02:58:00
10:58 PM,36.0,29.5,77,29.71,10.0,SW,9.2,-,N/A,,Overcast,230,2014-02-22 03:58:00
11:58 PM,37.0,26.1,65,29.73,10.0,WSW,18.4,25.3,N/A,,Scattered Clouds,240,2014-02-22 04:58:00